Regional Weather Roundup
Issued by NWS Nashville, TN

Home | Current Version | Previous Version | Text Only | Print | Product List | Glossary On
Versions: 1 2 3 4 5 6 7 8 9 10 11 12 13 14 15 16 17 18 19 20 21 22 23 24 25 26 27
000
ASUS44 KOHX 240810
RWROHX
MIDDLE TENNESSEE HOURLY WEATHER ROUNDUP
NATIONAL WEATHER SERVICE NASHVILLE TN
300 AM CDT SUN JUL 24 2016

NOTE: "FAIR" INDICATES FEW OR NO CLOUDS BELOW 12,000 FEET WITH
NO SIGNIFICANT WEATHER AND/OR OBSTRUCTIONS TO VISIBILITY.

* THESE REPORTS ARE NOT UNDER NWS QUALITY CONTROL AND MAY NOT
  REPORT WEATHER SUCH AS PRECIPITATION AND FOG.


TNZ005>011-023>034-057-059-062>066-078-080-240900
...NORTHERN MIDDLE TENNESSEE...

CITY           SKY/WX    TMP DP  RH WIND       PRES   REMARKS
CLARKSVILLE    CLEAR     75  73  93 E5        29.98S
CROSSVILLE     CLEAR     69  68  96 CALM      30.08S
NASHVILLE      PTCLDY    75  69  81 CALM      29.99F
SMYRNA         PTCLDY    73  71  93 CALM      30.00F
SPARTA         CLEAR     70  70 100 CALM      30.02S
$$
TNZ056-058-060-061-075>077-079-093>097-240900
...SOUTHERN MIDDLE TENNESSEE...

CITY           SKY/WX    TMP DP  RH WIND       PRES   REMARKS
COLUMBIA       CLEAR    N/A N/A N/A CALM      29.98S
FAYETTEVILLE   CLEAR     73  72  94 SE3       30.01F
MCMINNVILLE    CLEAR     72  72 100 CALM      30.03R
SHELBYVILLE    CLEAR     73  73 100 CALM      30.01F
TULLAHOMA      CLEAR     72  72 100 SE3       30.03S
WINCHESTER     CLEAR     72  72 100 SE6       30.02F
$$


...KEY TO REMARKS...
VSB - VISIBILITY IN MILES
WCI - WIND CHILL INDEX
HX  - HEAT INDEX





USA.gov is the U.S. government's official web portal to all federal, state and local government web resources and services.